Airfield :
LOGIN :

Register | Disclaimer

   EN    FR    IT 

 










Legend :    VFR   Marginal VFR   IFR   Intensive IFR   Very Intensive IFR
Visi :
Ceiling :
>= 8 km
>= 3000ft
5 to 8 km
1000 to 3000 ft
1500m to 5 km
500 to 1000 ft
800 to 1500m
200 to 500 ft
< 800m
< 200 ft
Symbols :   Thunderstorms  Fog  Heavy snow  Heavy precipitations  Wind > 20 kt
SIGMETs :     Misc.  Thunderstorms  Icing  Turbulence  Mountain Waves  Volcanic Ashes







- Airport Elevation : 939 ft


LKKB - Kbely Air Base

CURRENT METAR :
  • 211600Z 28003KT 260V060 9999 FEW049 OVC070 M00/M03 Q1015 NOSIG

EXPIRED METARs :
  • 211500Z 30010KT 280V360 9999 -SHRA FEW023 BKN035 BKN050 02/M03 Q1015 NOSIG
  • 211400Z 32008KT 270V350 9999 FEW020 SCT070 03/M03 Q1013 NOSIG

TAF AMD TAF LKKB
Valid from the 21 at 15:00 until the 22 at 12:00 UTC


211500Z 2115/2212 33008KT 9999 SCT020 BKN035
TEMPO 2115/2117 35016KT 1500 -SHRA SCT017 OVC030
BECMG 2121/2123 VRB02KT 5000 BR
TEMPO 2200/2209 2500 BR
BECMG 2210/2212 16006KT BKN020
No reported NOTAMs for that airfield.



MET'MAP, your aeronautical weather chart ! - Copyright ORBIFLY December 2007 - Disclaimer

ORBIFLY MET'MAP TEAM :

Programming & Development : Alexandra Zaïnal
Concept & Development : Baudouin d'Aumeries
Co-Development & Prog : Marc-Olivier Méhu
Technical & hardware support : Manuel Goepfert

Contact : metmap@orbifly.com




SOURCES & CREDITS :

   NOAA